Date String (YYYY-MM-DD hh:mm:ss) UTC,Instrument flags,absolute air pressure of the measurement (hPa),sample flow rate (lpm),inlet stack bypass flow (lpm),air temperature of the measurement (°C),ambient temperature measured by the external sensor (°C),aerosol sample conditioner tube jacket temperature (°C),OPC LED temperature (°C),internal box temperature (°C),relative humidity of the measurement (%),span deviation,mass concentration of particles derived from Lorenz-Mie calculation of OPC scattering (μg/m³),mass concentration of particles derived from Lorenz-Mie calculation of OPC scattering (μg/m³),mass concentration of particles derived from Lorenz-Mie calculation of OPC scattering (μg/m³)
DateTimeUTC,F1_M11,P_M11,Q1_M11,Q2_M11,T1_M11,T2_M11,T3_M11,T4_M11,T5_M11,U1_M11,ZSPAN_M11,X0_M11,X2_M11,X1_M11
2023-12-20 22:00:00,SystemResetWarning,0829.0,5.01,000.00,026.0,024.8,000.0,034.2,027.4,11.0,0000.0,0015.80,0004.42,0003.51
2023-12-20 22:01:00,SystemResetWarning,0829.1,5.01,000.00,026.0,024.9,000.0,034.2,027.5,11.0,0000.8,0016.40,0004.54,0003.53
2023-12-20 22:02:00,SystemResetWarning,0829.1,5.00,000.00,026.0,025.0,000.0,034.2,027.5,11.0,0000.0,0017.22,0004.59,0003.54
2023-12-20 22:03:00,SystemResetWarning,0829.1,4.99,000.00,026.1,025.1,000.0,034.2,027.5,10.9,0000.0,0018.82,0004.70,0003.56
2023-12-20 22:04:00,SystemResetWarning,0829.1,5.00,000.00,026.1,025.2,000.0,034.2,027.6,10.9,0000.7,0017.91,0004.70,0003.57
2023-12-20 22:05:00,SystemResetWarning,0829.1,5.00,000.00,026.1,025.2,000.0,034.3,027.6,10.9,-000.0,0017.00,0004.72,0003.58
2023-12-20 22:06:00,SystemResetWarning,0829.1,4.99,000.00,026.1,025.3,000.0,034.3,027.6,10.8,0000.0,0016.96,0004.72,0003.61
2023-12-20 22:07:00,SystemResetWarning,0829.1,5.00,000.00,026.2,025.3,000.0,034.3,027.6,10.8,0000.1,0016.60,0004.82,0003.64
2023-12-20 22:08:00,SystemResetWarning,0829.1,5.00,000.00,026.2,025.3,000.0,034.3,027.6,10.8,0000.7,0015.98,0004.91,0003.66
2023-12-20 22:09:00,SystemResetWarning,0829.1,5.00,000.00,026.2,025.4,000.0,034.3,027.7,10.8,0001.5,0015.50,0004.89,0003.66
2023-12-20 22:10:00,SystemResetWarning,0829.1,5.00,000.00,026.2,025.4,000.0,034.3,027.7,10.8,0001.5,0015.33,0004.90,0003.67
2023-12-20 22:11:00,SystemResetWarning,0829.1,5.01,000.00,026.2,025.4,000.0,034.4,027.7,10.9,0001.1,0015.77,0004.86,0003.67
2023-12-20 22:12:00,SystemResetWarning,0829.1,4.99,000.00,026.3,025.5,000.0,034.4,027.7,10.9,0000.8,0016.13,0004.85,0003.66
2023-12-20 22:13:00,SystemResetWarning,0829.1,5.00,000.00,026.3,025.5,000.0,034.4,027.7,10.9,0002.0,0016.50,0004.84,0003.66
2023-12-20 22:14:00,SystemResetWarning,0829.1,5.00,000.00,026.3,025.5,000.0,034.4,027.8,10.9,0002.2,0014.85,0004.77,0003.65
2023-12-20 22:15:00,SystemResetWarning,0829.1,5.00,000.00,026.3,025.5,000.0,034.4,027.8,10.9,0002.0,0014.34,0004.79,0003.66
2023-12-20 22:16:00,SystemResetWarning,0829.1,5.00,000.00,026.3,025.5,000.0,034.5,027.8,10.9,0001.4,0014.45,0004.86,0003.65
2023-12-20 22:17:00,SystemResetWarning,0829.1,4.99,000.00,026.3,025.6,000.0,034.5,027.8,11.0,0001.0,0013.65,0004.92,0003.64
2023-12-20 22:18:00,SystemResetWarning,0829.1,5.00,000.00,026.4,025.6,000.0,034.5,027.8,11.0,0003.0,0013.89,0004.91,0003.64
2023-12-20 22:19:00,SystemResetWarning,0829.1,5.00,000.00,026.4,025.6,000.0,034.5,027.8,11.0,0003.4,0014.69,0004.86,0003.64
2023-12-20 22:20:00,SystemResetWarning,0829.1,5.00,000.00,026.4,025.6,000.0,034.5,027.9,11.1,0003.5,0016.32,0004.87,0003.66
2023-12-20 22:21:00,SystemResetWarning,0829.1,5.01,000.00,026.4,025.6,000.0,034.6,027.9,11.1,0004.0,0016.64,0004.87,0003.67
2023-12-20 22:22:00,SystemResetWarning,0829.1,5.00,000.00,026.4,025.7,000.0,034.6,027.9,11.1,0003.1,0016.23,0004.93,0003.68
2023-12-20 22:23:00,SystemResetWarning,0829.1,5.00,000.00,026.4,025.7,000.0,034.6,027.9,11.0,0003.6,0016.39,0004.97,0003.71
2023-12-20 22:24:00,SystemResetWarning,0829.1,5.00,000.00,026.4,025.7,000.0,034.6,027.9,11.1,0003.0,0015.93,0005.04,0003.74
2023-12-20 22:25:00,SystemResetWarning,0829.1,5.00,000.00,026.4,025.7,000.0,034.6,027.9,11.1,0000.5,0017.42,0005.11,0003.76
2023-12-20 22:26:00,SystemResetWarning,0829.1,5.00,000.00,026.4,025.7,000.0,034.6,027.9,11.2,0000.0,0018.49,0005.13,0003.77
2023-12-20 22:27:00,SystemResetWarning,0829.1,5.00,000.00,026.4,025.8,000.0,034.6,027.9,11.2,0000.6,0018.45,0005.05,0003.79
2023-12-20 22:28:00,SystemResetWarning,0829.1,5.00,000.00,026.4,025.8,000.0,034.7,027.9,11.2,0000.5,0018.44,0005.06,0003.81
2023-12-20 22:29:00,SystemResetWarning,0829.2,4.98,000.00,026.5,025.1,000.0,034.7,027.9,11.2,-000.5,0018.49,0005.04,0003.82
2023-12-20 22:30:00,SystemResetWarning,0829.2,5.01,000.00,026.4,023.0,000.0,034.6,027.7,11.1,-000.4,0018.09,0005.05,0003.84
2023-12-20 22:31:00,SystemResetWarning,0829.2,5.01,000.00,026.3,022.4,000.0,034.6,027.5,11.2,-000.4,0017.70,0005.11,0003.85
2023-12-20 22:32:00,SystemResetWarning,0829.2,5.00,000.00,026.1,022.6,000.0,034.5,027.0,11.4,-001.0,0018.07,0005.13,0003.86
2023-12-20 22:33:00,SystemResetWarning,0829.2,5.00,000.00,026.0,023.0,000.0,034.5,026.9,11.4,-000.6,0017.87,0005.08,0003.86
2023-12-20 22:34:00,SystemResetWarning,0829.2,5.00,000.00,025.9,023.4,000.0,034.4,027.0,11.4,-000.9,0017.19,0005.00,0003.88
2023-12-20 22:35:00,SystemResetWarning,0829.2,5.00,000.00,025.9,023.7,000.0,034.4,027.1,11.5,-000.1,0017.00,0004.96,0003.87
2023-12-20 22:36:00,SystemResetWarning,0829.3,4.99,000.00,025.9,024.0,000.0,034.3,027.1,11.5,0000.9,0015.51,0004.94,0003.88
2023-12-20 22:37:00,SystemResetWarning,0829.2,5.01,000.00,025.9,024.2,000.0,034.3,027.2,11.6,0000.7,0015.19,0004.94,0003.87
2023-12-20 22:38:00,SystemResetWarning,0829.3,5.01,000.00,025.9,024.4,000.0,034.3,027.3,11.5,0000.7,0015.29,0004.98,0003.88
2023-12-20 22:39:00,SystemResetWarning,0829.3,4.99,000.00,026.0,024.6,000.0,034.3,027.3,11.5,0000.6,0015.21,0004.96,0003.89
2023-12-20 22:40:00,SystemResetWarning,0829.3,4.99,000.00,026.0,024.7,000.0,034.3,027.4,11.4,0000.6,0014.75,0004.96,0003.89
2023-12-20 22:41:00,SystemResetWarning,0829.3,5.01,000.00,026.0,024.9,000.0,034.3,027.5,11.4,0000.3,0014.45,0004.94,0003.89
2023-12-20 22:42:00,SystemResetWarning,0829.4,5.01,000.00,026.0,025.0,000.0,034.3,027.5,11.3,0000.1,0013.93,0004.92,0003.89
2023-12-20 22:43:00,SystemResetWarning,0829.4,5.01,000.00,026.1,025.1,000.0,034.3,027.5,11.4,0000.6,0013.57,0004.90,0003.90
2023-12-20 22:44:00,SystemResetWarning,0829.4,5.00,000.00,026.1,025.1,000.0,034.3,027.6,11.4,0002.0,0014.95,0004.98,0003.92
2023-12-20 22:45:00,SystemResetWarning,0829.4,4.99,000.00,026.1,025.2,000.0,034.3,027.6,11.4,0001.9,0015.83,0005.05,0003.94
2023-12-20 22:46:00,SystemResetWarning,0829.3,5.00,000.00,026.1,025.3,000.0,034.3,027.6,11.3,0000.9,0017.45,0005.11,0003.95
2023-12-20 22:47:00,SystemResetWarning,0829.4,4.99,000.00,026.2,025.3,000.0,034.3,027.6,11.3,-000.2,0019.38,0005.19,0003.96
2023-12-20 22:48:00,SystemResetWarning,0829.4,4.99,000.00,026.2,025.4,000.0,034.3,027.7,11.3,0000.3,0019.95,0005.30,0003.99
2023-12-20 22:49:00,SystemResetWarning,0829.3,4.99,000.00,026.2,025.4,000.0,034.4,027.7,11.3,0000.8,0020.71,0005.36,0004.02
2023-12-20 22:50:00,SystemResetWarning,0829.3,5.00,000.00,026.2,025.5,000.0,034.4,027.7,11.3,0001.6,0021.44,0005.39,0004.03
2023-12-20 22:51:00,SystemResetWarning,0829.3,4.99,000.00,026.3,024.5,000.0,034.4,027.8,11.3,0002.2,0022.54,0005.45,0004.05
2023-12-20 22:52:00,SystemResetWarning,0829.4,5.00,000.00,026.2,022.6,000.0,034.3,027.5,11.3,0001.3,0024.00,0005.50,0004.06
2023-12-20 22:53:00,SystemResetWarning,0829.3,5.01,000.00,026.1,022.1,000.0,034.3,027.2,11.4,0002.0,0024.40,0005.49,0004.06
2023-12-20 22:54:00,SystemResetWarning,0829.3,5.00,000.00,025.9,022.4,000.0,034.2,026.7,11.5,0002.2,0023.78,0005.48,0004.06
2023-12-20 22:55:00,SystemResetWarning,0829.4,5.00,000.00,025.8,022.8,000.0,034.2,026.7,11.6,0001.7,0022.66,0005.45,0004.05
2023-12-20 22:56:00,SystemResetWarning,0829.4,5.01,000.00,025.7,023.2,000.0,034.1,026.8,11.6,0000.7,0022.26,0005.42,0004.01
2023-12-20 22:57:00,SystemResetWarning,0829.4,5.00,000.00,025.7,023.5,000.0,034.1,026.8,11.7,0002.0,0021.31,0005.37,0004.01
2023-12-20 22:58:00,SystemResetWarning,0829.4,5.00,000.00,025.7,023.7,000.0,034.1,026.9,11.7,0003.2,0019.17,0005.28,0004.00
2023-12-20 22:59:00,SystemResetWarning,0829.4,5.00,000.00,025.7,024.0,000.0,034.1,027.0,11.6,0003.9,0018.18,0005.20,0003.99
